Flag for Norway Weather past 2 weeks in Eidsvoll, Norway

Now
32 °F

Clear.


Feels Like: 32 °F
Forecast: 24 / 35 °F
Wind: 2 mph from North

Location: Oslo Gardermoen Airport

Current Time: Mar 31, 2015 at 1:46:38 AM

Latest Report: Mar 31, 2015 at 12:50 AM


Visibility: 10 mi

Pressure: 29.06 "Hg

Humidity: 87%

Dew point: 28 °F

Location of EidsvollLocation

Historic Weather in Eidsvoll — Graph

°F

Eidsvoll temperature yesterday

Maximum temperature yesterday: 43 °F (at 4:20 PM)
Minimum temperature yesterday: 30 °F (at 11:50 PM)
Average temperature yesterday: 36 °F

Past Weeks' High & Low Weather Summary

 TemperatureHumidityPressure
High48 °F (Mar 24, 12:20 PM)100% (Mar 17, 4:20 AM)30.83 "Hg (Mar 17, 4:20 AM)
Low21 °F (Mar 28, 6:50 AM)27% (Mar 21, 1:50 PM)28.94 "Hg (Mar 30, 12:20 AM)
Average34 °F80%29.95 "Hg
* Reported Mar 15 11:20 PM — Mar 31 12:50 AM, Eidsvoll, Weather by CustomWeather, © 2015

Note: Actual official high and low records may vary slightly from our data, if they occured in-between our weather recording intervals... More about our weather records

Advertising

Eidsvoll weather history for previous 24 hours

 ConditionsComfort  
Time TempWeatherWind HumidityBarometerVisibility
12:50 AM
Tue, Mar 31
32 °FClear.2 mph87%29.06 "Hg10 mi
12:20 AM32 °FPassing clouds.5 mph87%29.06 "HgN/A
11:50 PM
Mon, Mar 30
30 °FClear.3 mph93%29.06 "Hg10 mi
11:20 PM34 °FPassing clouds.5 mph87%29.09 "HgN/A
10:50 PM34 °FPassing clouds.3 mph81%29.09 "HgN/A
10:20 PM36 °FPassing clouds.3 mph75%29.09 "HgN/A
9:50 PM36 °FPassing clouds.3 mph81%29.09 "HgN/A
9:20 PM36 °FPassing clouds.3 mph81%29.09 "HgN/A
8:50 PM37 °FSunny.2 mph75%29.12 "Hg10 mi
8:20 PM37 °FSunny.2 mph70%29.09 "Hg10 mi
7:50 PM39 °FSunny.2 mph70%29.09 "Hg10 mi
7:20 PM41 °FSunny.2 mph61%29.09 "Hg10 mi
6:50 PM41 °FSunny.5 mph61%29.09 "Hg10 mi
6:20 PM41 °FPartly sunny.5 mph61%29.09 "HgN/A
5:50 PM41 °FScattered clouds.7 mph61%29.09 "HgN/A
5:20 PM43 °FPassing clouds.12 mph53%29.09 "HgN/A
4:50 PM41 °FPassing clouds.10 mph57%29.06 "HgN/A
4:20 PM43 °FPartly sunny.8 mph57%29.06 "HgN/A
3:50 PM41 °FBroken clouds.9 mph61%29.06 "HgN/A
3:20 PM41 °FBroken clouds.10 mph61%29.06 "HgN/A
2:50 PM39 °FPartly sunny.9 mph65%29.06 "HgN/A
2:20 PM39 °FPartly sunny.9 mph70%29.06 "HgN/A
1:50 PM39 °FPartly sunny.9 mph70%29.03 "HgN/A
1:20 PM39 °FPartly sunny.9 mph70%29.03 "HgN/A
12:50 PM39 °FBroken clouds.8 mph70%29.03 "HgN/A
12:20 PM37 °FPartly sunny.10 mph81%29.03 "HgN/A
11:50 AM37 °FPartly sunny.9 mph75%29.00 "HgN/A
11:20 AM37 °FPartly sunny.8 mph81%29.00 "HgN/A
10:50 AM36 °FBroken clouds.7 mph87%29.00 "HgN/A
10:20 AM36 °FBroken clouds.9 mph87%29.00 "HgN/A
9:50 AM34 °FLight rain. Partly sunny.9 mph93%29.00 "HgN/A
9:20 AM34 °FLight rain. Partly sunny.8 mph93%28.97 "HgN/A
8:50 AM34 °FLight rain. Broken clouds.7 mph93%28.97 "HgN/A
8:20 AM34 °FLight rain. Broken clouds.7 mph93%28.97 "HgN/A
7:50 AM34 °FLight rain. Broken clouds.8 mph93%28.97 "HgN/A
7:20 AM34 °FLight rain. Partly cloudy.7 mph93%28.94 "HgN/A
6:50 AM34 °FLight rain. Partly cloudy.9 mph100%28.94 "HgN/A
6:20 AM34 °FLight rain. Partly cloudy.7 mph93%28.94 "Hg4 mi
5:50 AM34 °FLight rain. Partly cloudy.7 mph93%28.94 "Hg5 mi
5:20 AM34 °FLight rain. Fog.7 mph93%28.94 "Hg3 mi
4:50 AM34 °FLight rain. Fog.3 mph93%28.94 "Hg2 mi
4:20 AM34 °FLight rain. Fog.2 mph93%28.94 "Hg3 mi
3:50 AM34 °FLight rain. Fog.5 mph93%28.94 "Hg1 mi
3:20 AM34 °FLight rain. Fog.No wind100%28.94 "Hg1 mi
2:50 AM34 °FLight rain. Fog.No wind100%28.94 "Hg1 mi
2:20 AM34 °FLight rain. Fog.2 mph100%28.94 "Hg2 mi
1:50 AM34 °FPartly cloudy.2 mph100%28.94 "Hg4 mi
1:20 AM36 °FLight rain. Partly cloudy.3 mph93%28.94 "Hg4 mi
Weather by CustomWeather, © 2015

See weather overviewHow to use our weather pages